Tracking 25710 objects as of 6-Jul-2022
HD Live streaming from Space Station
objects crossing your sky now

STARLINK-3645

Track STARLINK-3645 now!
10-day predictions
STARLINK-3645 is classified as:


NORAD ID: 51986
Int'l Code: 2022-025AG
Perigee: 545.9 km
Apogee: 547.9 km
Inclination: 53.2 °
Period: 95.4 minutes
Semi major axis: 6917 km
RCS: Unknown
Launch date: March 9, 2022
Source: United States (US)
Launch site: AIR FORCE EASTERN TEST RANGE (AFETR)
aabbcc
Your satellite tracking list
Your tracking list is empty




NASA's NSSDC Master Catalog

Two Line Element Set (TLE):
1 51986U 22025AG  22186.58334491 -.00013515  00000-0 -83256-3 0  9990
2 51986  53.2188 308.5531 0001470  59.7689 121.3803 15.08842870  1304
Source of the keplerian elements: AFSPC